Miscellaneous Local Product
Issued by NWS North Platte, NE

Home | Current Version | Previous Version | Graphics & Text | Print | Product List | Glossary On
Versions: 1 2 3 4 5 6 7 8 9 10 11 12 13 14 15 16 17 18 19 20 21 22 23 24 25 26 27 28 29 30 31 32 33 34 35 36 37 38 39 40 41 42 43 44 45 46 47 48 49 50
000
AXUS43 KLBF 070910
MISLBF


WESTERN AND NORTH CENTRAL NEBRASKA HOURLY WEATHER ROUNDUP
NATIONAL WEATHER SERVICE NORTH PLATTE NE
400 AM CDT TUE JUL 07 2015

***STATIONS NOT REPORTING VARIABLES SUCH AS SKY/WEATHER OR
PRESSURE ARE PROVIDED BY THE NEBRASKA DEPARTMENT OF
ROADS...RAWS...AND APRS NETWORKS...AND ARE NOT UNDER
NATIONAL WEATHER SERVICE QUALITY CONTROL***

...OBSERVATIONS IN AND NEAR THE EASTERN PANHANDLE OF NEBRASKA...

CITY           SKY/WX    TMP DP  RH WIND       PRES   REMARKS
PINE RIDGE     MOCLDY    62  53  72 S9        30.20F
CHADRON        CLOUDY    59  55  87 CALM      30.19F
ALLIANCE       PTCLDY    54  52  93 SE3       30.22F FOG
SIDNEY         CLOUDY    60  53  77 SE8       30.24F
WHITECLAY        N/A     59  54  82 S8          N/A
CRESCENT LAKE    N/A     58  55  90 SE3         N/A
BIG SPRINGS      N/A     61  58  88 CALM        N/A
$$

...OBSERVATIONS IN NORTH CENTRAL NEBRASKA...

CITY           SKY/WX    TMP DP  RH WIND       PRES   REMARKS
VALENTINE      CLEAR     53  52  96 W3        30.20S
THEDFORD       CLEAR     53  52  97 CALM      30.22S FOG
AINSWORTH      CLEAR     56  55  96 W3        30.20S
O`NEILL        CLEAR     54  53  95 NW5       30.18S
ORD            CLEAR     50  48  93 SW3       30.17R FOG
BROKEN BOW     CLEAR     52  50  93 NW3       30.20R FOG
VALENTINE NWR    N/A     52  52  99 CALM        N/A
SPRINGVIEW       N/A     52  50  93 CALM        N/A
HALSEY           N/A     53  52  97 CALM        N/A
BREWSTER         N/A     54  53  99 CALM        N/A
ROSE             N/A     71  69  93 N6          N/A
NEWPORT          N/A     54  54  99 W3          N/A
SARGENT          N/A     53  52  96 CALM        N/A
CHAMBERS         N/A     52  50  93 CALM        N/A
EWING            N/A     55  53  93 CALM        N/A
$$

...OBSERVATIONS IN SOUTHWEST NEBRASKA AND FAR NORTHEAST COLORADO...

CITY           SKY/WX    TMP DP  RH WIND       PRES   REMARKS
WRAY           FAIR      58  51  78 E3        30.22F
HOLYOKE        FAIR      59  54  82 CALM      30.23F
IMPERIAL       CLOUDY    60  53  77 E7        30.21F
OGALLALA       CLOUDY    60  55  84 CALM      30.22R
NORTH PLATTE   PTCLDY    54  52  93 CALM      30.21S
MCCOOK         MOCLDY    59  54  83 N5        30.19F HAZE
LEXINGTON      CLEAR     53  51  94 N5        30.19F FOG
PAXTON           N/A     59  56  89 CALM        N/A
GOTHENBURG       N/A     57  50  77 N3          N/A
CALLAWAY         N/A     53  51  92 CALM        N/A
$$

...NORTH PLATTE AREA...

CITY           SKY/WX    TMP DP  RH WIND       PRES   REMARKS
AIRPORT        PTCLDY    54  52  93 CALM      30.21S
DOWNTOWN         N/A     57  53  88 CALM        N/A
HILLCREST        N/A     55  52  91 SE3         N/A
$$

...SOME WEATHER OBSERVATIONS FROM AROUND THE REGION...

CITY           SKY/WX    TMP DP  RH WIND       PRES   REMARKS
DENVER         CLOUDY    59  53  80 SE8       30.26F HAZE
LARAMIE        CLOUDY    53  50  89 SE16G23   30.29F
CHEYENNE       CLOUDY    53  52  96 SE8       30.28F FOG
SCOTTSBLUFF    CLOUDY    61  56  83 E6        30.21F HAZE
RAPID CITY     PTCLDY    58  55  90 SE6       30.18F
PIERRE         CLEAR     55  52  89 E7        30.16S FOG
WINNER         FAIR      58  53  84 CALM      30.18S
SIOUX FALLS    CLEAR     52  49  89 N3        30.16R
OMAHA          CLEAR     58  53  84 N9        30.09S
GRAND ISLAND   CLEAR     55  53  93 N7        30.16S FOG
KANSAS CITY    LGT RAIN  61  60  97 NE9       30.01R FOG
WICHITA        LGT RAIN  66  63  90 NE16G25   30.00S FOG
HAYS           MOCLDY    64  52  63 NE9       30.11F
LIBERAL        CLOUDY    64  55  72 N14       30.12F
GOODLAND       MOCLDY    56  52  86 E3        30.22S
$$



USA.gov is the U.S. government's official web portal to all federal, state and local government web resources and services.